Retour au catalogue

COSMOS 970 DEB

ActifLEO
NORAD 10565·DEBRIS·🇷🇺 Russia

Lancé Dec 21, 1977 depuis Baikonur Cosmodrome

Loading…

Prochains Passages (prochaines 24 heures)

TLE

FraisSource: Space-Track

Époque: Sep 14, 2026, 06:17 UTC

1 10565U 77121G   26257.26222373  .00000121  00000-0  23106-3 0  9993
2 10565  65.8278 197.3273 0119412 198.3348 236.2455 13.66145282421340

Suivez COSMOS 970 DEB en temps réel avec AllMySat

Download on the App Store